Weather History for Vicksburg, MS

Change the Weather History Date:

Thursday, September 12, 2013

  Actual Average Record
Temperature  
Mean Temperature 81 °F 76 °F  
Max Temperature 96 °F 88 °F 97 °F (1953)
Min Temperature 66 °F 65 °F 49 °F (1956)
Degree Days  
Heating Degree Days 0 0  
Month to date heating degree days 0 0  
Since 1 July heating degree days 0 0  
Cooling Degree Days 16 11  
Month to date cooling degree days 208 150  
Year to date cooling degree days 1915 1939  
Growing Degree Days 30 (Base 50)    
Moisture  
Dew Point 69 °F    
Average Humidity 70    
Maximum Humidity 100    
Minimum Humidity 39    
Precipitation  
Precipitation 0.00 in 0.11 in 5.65 in (1982)
Month to date precipitation 0.78 1.44  
Year to date precipitation 48.93 38.01  
Sea Level Pressure  
Sea Level Pressure 30.03 in    
Wind  
Wind Speed 1 mph (NNW)    
Max Wind Speed 8 mph    
Max Gust Speed 13 mph    
Visibility 8 miles    
Events      
T = Trace of Precipitation, MM = Missing Value Source: NWS Daily Summary

Daily Weather History Graph

Daily Weather History Graph

Search for Another Location

Airport:

Trip Planner

Search our weather history database for the weather conditions in past years. The results will help you decide how hot, cold, wet, or windy it might be!

Date:

Astronomy

Sep. 12, 2013 Rise Set
Actual Time 6:46 AM CDT 7:13 PM CDT
Civil Twilight 6:21 AM CDT 7:38 PM CDT
Nautical Twilight 5:52 AM CDT 8:07 PM CDT
Astronomical Twilight 5:23 AM CDT 8:36 PM CDT
Moon 1:51 PM CDT (9/12) No Moon Set
Length of Visible Light 13h 16m
Length of Day
12h 27m
Waxing Crescent, 50% of the Moon is Illuminated
Sep 12
Waxing Crescent
Sep 12
First Quarter
Sep 19
Full
Sep 26
Last Quarter
Oct 4
New

Hourly Weather History & Observations

Time (CDT) Temp. Heat Index Dew Point Humidity Pressure Visibility Wind Dir Wind Speed Gust Speed Precip Events Conditions
12:53 AM 70.0 °F - 69.1 °F 97% 30.06 in 10.0 mi Calm Calm - N/A   Clear
1:53 AM 69.1 °F - 68.0 °F 96% 30.07 in 8.0 mi Calm Calm - N/A   Clear
2:53 AM 69.1 °F - 68.0 °F 96% 30.06 in 5.0 mi Calm Calm - N/A   Clear
3:53 AM 68.0 °F - 66.9 °F 96% 30.07 in 4.0 mi Calm Calm - N/A   Clear
4:53 AM 68.0 °F - 66.0 °F 93% 30.07 in 4.0 mi Calm Calm - N/A   Clear
5:53 AM 66.9 °F - 66.0 °F 97% 30.08 in 5.0 mi Calm Calm - N/A   Clear
6:42 AM 66.2 °F - 64.4 °F 94% 30.07 in 2.5 mi Calm Calm - N/A   Clear
6:53 AM 66.9 °F - 66.0 °F 97% 30.08 in 1.8 mi Calm Calm - N/A   Clear
7:19 AM 69.8 °F - 66.2 °F 88% 30.07 in 2.5 mi Calm Calm - N/A   Clear
7:32 AM 69.8 °F - 69.8 °F 100% 30.07 in 4.0 mi Calm Calm - N/A   Clear
7:53 AM 73.9 °F - 71.1 °F 91% 30.09 in 7.0 mi Calm Calm - N/A   Clear
8:53 AM 80.1 °F 84.2 °F 73.0 °F 79% 30.09 in 10.0 mi Calm Calm - N/A   Clear
9:53 AM 84.0 °F 90.2 °F 73.0 °F 69% 30.09 in 10.0 mi West 3.5 mph - N/A   Clear
10:53 AM 89.1 °F 96.0 °F 72.0 °F 57% 30.09 in 10.0 mi Calm Calm - N/A   Clear
11:53 AM 90.0 °F 94.5 °F 69.1 °F 50% 30.07 in 10.0 mi Calm Calm - N/A   Scattered Clouds
12:53 PM 93.0 °F 97.9 °F 69.1 °F 45% 30.05 in 10.0 mi Variable 5.8 mph - N/A   Partly Cloudy
1:53 PM 95.0 °F 100.7 °F 69.1 °F 43% 30.03 in 10.0 mi Variable 5.8 mph - N/A   Clear
2:53 PM 93.9 °F 97.5 °F 66.9 °F 41% 29.99 in 10.0 mi Variable 3.5 mph - N/A   Clear
3:53 PM 95.0 °F 97.9 °F 66.0 °F 38% 29.96 in 10.0 mi Variable 4.6 mph - N/A   Partly Cloudy
4:53 PM 93.9 °F 97.0 °F 66.0 °F 40% 29.94 in 10.0 mi Variable 5.8 mph - N/A   Clear
5:53 PM 93.0 °F 97.4 °F 68.0 °F 44% 29.94 in 10.0 mi ENE 4.6 mph - N/A   Clear
6:53 PM 82.0 °F 87.4 °F 73.0 °F 74% 29.94 in 10.0 mi Calm Calm - N/A   Clear
7:53 PM 75.9 °F - 72.0 °F 87% 29.95 in 10.0 mi Calm Calm - N/A   Clear
8:53 PM 75.0 °F - 72.0 °F 90% 29.96 in 10.0 mi Calm Calm - N/A   Clear
9:53 PM 73.9 °F - 72.0 °F 93% 29.96 in 9.0 mi Calm Calm - N/A   Partly Cloudy
10:53 PM 72.0 °F - 70.0 °F 93% 29.96 in 6.0 mi Calm Calm - N/A   Clear
11:53 PM 73.0 °F - 71.1 °F 93% 29.95 in 6.0 mi Calm Calm - N/A   Partly Cloudy